Aeroporto :
LOGIN :

Iscrizione | Disclaimer

   EN    FR    IT 

 










Sommario :    VFR   VFR Marginale   IFR   IFR Intensivo   IFR Molto Intensivo
Visibilità : 
Base nubi : 
>= 8 km
>= 3000ft
5 / 8 km
1000 / 3000 ft
1500m / 5 km
500 / 1000 ft
800 / 1500m
200 / 500 ft
< 800m
< 200 ft
Simboli :   Temporali  Nebbia  Neve Forte  Precipitazioni Forti  Vento > 20 kt
SIGMETs :   Varie  Temporali  Ghiacco  Turbolenza  Onda orograficha  Ceneri Vulcaniche






- Altitudine del aeroporto : 194 ft
- Codice IATA : ANE


LFJR - Angers Marcé

ULTIMO METAR :
  • 290300Z AUTO 03013G23KT 360V060 CAVOK 07/00 Q1025

METARs OBSOLETI :
  • 290230Z AUTO 02013KT 340V060 CAVOK 07/01 Q1025
  • 290200Z AUTO 03013KT 360V070 CAVOK 07/01 Q1024
  • 290130Z AUTO 03010KT 360V060 CAVOK 07/02 Q1024
  • 290100Z AUTO 02011KT 350V060 CAVOK 07/02 Q1024

Previsioni scadute.



MetMap, La meteo Aeronautica in un colpo d'occhio ! - Copyright ORBIFLY Dicembre 2007 - Disclaimer

ORBIFLY MET'MAP TEAM :

Programmazione e sviluppo : Alexandra Zaïnal
Concezione : Baudouin d'Aumeries
Aiuto per la programmazione : Marc-Olivier Méhu
Supporto tecnico e logistico : Manuel Goepfert
Aiuto per la traduzione : Arnaldo La Scala

Contatto : metmap@orbifly.com




FONTI E CREDITI :

   NOAA